FW1932 Weather Reports


Display with metric or nautical units.
time (UTC)temp
F
wind
direction
speed
MPH
gust
MPH
rain 1hr
in
rain 24hr
in
rain mn
in
humidity
%
barometer
mb
20260507060053 50 246 0.0 3.0 0.01 0.51 0.12 92 1016.6
20260507054628 50 250 0.0 4.0 0.01 0.51 0.12 92 1016.5
20260507053052 50 248 1.0 4.0 0.01 0.51 0.12 93 1016.3
20260507051547 50 240 1.0 5.0 0.00 0.50 0.11 92 1016.1
20260507050053 50 248 1.0 4.0 0.00 0.50 0.11 92 1016.1
20260507044549 50 252 1.0 5.0 0.00 0.50 0.11 92 1015.6
20260507043045 50 253 1.0 4.0 0.00 0.50 0.11 92 1015.6
20260507041545 50 236 1.0 5.0 0.00 0.50 0.11 93 1015.5
20260507040044 49 241 2.0 4.0 0.01 0.50 0.11 93 1015.4
20260507034542 49 259 1.0 5.0 0.01 0.50 0.11 93 1015.4
20260507033044 49 253 1.0 5.0 0.01 0.50 0.11 93 1015.3
20260507031546 49 242 2.0 5.0 0.01 0.50 0.11 93 1015.2
20260507030048 49 259 1.0 4.0 0.00 0.50 0.10 93 1015.2
20260507024541 49 247 1.0 6.0 0.00 0.50 0.10 93 1015.1
20260507023035 49 237 4.0 8.0 0.01 0.50 0.10 94 1015.2
20260507021535 49 289 3.0 7.0 0.02 0.50 0.10 94 1015.1
20260507020032 49 247 2.0 6.0 0.03 0.50 0.10 94 1014.9
20260507014542 49 236 3.0 8.0 0.05 0.50 0.10 94 1014.9
20260507013028 49 250 3.0 8.0 0.06 0.49 0.09 93 1014.7
20260507011528 49 263 1.0 5.0 0.05 0.47 0.08 93 1014.7
20260507010027 49 243 2.0 4.0 0.05 0.46 0.07 93 1014.7
20260507004524 49 257 1.0 4.0 0.02 0.44 0.05 92 1014.7
20260507003022 49 240 1.0 5.0 0.02 0.43 0.04 91 1014.6
20260507001526 50 282 1.0 3.0 0.02 0.43 0.03 90 1014.6
20260507000031 50 247 1.0 4.0 0.01 0.42 0.02 90 1014.6
20260506234517 50 240 3.0 6.0 0.01 0.42 0.02 89 1014.6
20260506233017 50 238 2.0 7.0 0.01 0.42 0.02 89 1014.7
20260506231514 50 255 1.0 5.0 0.01 0.41 0.02 89 1014.6
20260506230013 50 263 1.0 6.0 0.02 0.41 0.02 89 1014.6
20260506224512 50 269 0.0 4.0 0.02 0.41 0.02 89 1014.6
20260506223010 50 249 1.0 5.0 0.02 0.41 0.02 89 1014.5
20260506221509 50 249 0.0 4.0 0.01 0.40 0.01 89 1014.5
20260506220016 50 242 1.0 3.0 0.00 0.39 0.00 89 1014.4
20260506214506 50 249 1.0 5.0 0.00 0.39 0.39 89 1014.4
20260506213005 50 247 2.0 6.0 0.00 0.39 0.39 88 1014.3
20260506211508 51 261 1.0 4.0 0.00 0.39 0.39 88 1014.2
20260506210007 51 259 1.0 5.0 0.00 0.39 0.39 88 1014.0
20260506204501 51 253 1.0 5.0 0.01 0.39 0.39 89 1014.0
20260506203100 51 224 1.0 4.0 0.02 0.39 0.39 91 1013.8
20260506201557 51 253 3.0 6.0 0.02 0.39 0.39 91 1013.7
20260506200056 51 236 1.0 5.0 0.02 0.39 0.39 91 1013.5
20260506194614 51 239 2.0 5.0 0.02 0.39 0.39 90 1013.4
20260506193103 51 245 0.0 2.0 0.02 0.38 0.38 91 1013.4
20260506191551 51 254 0.0 1.0 0.03 0.38 0.38 91 1013.0
20260506190050 51 250 0.0 3.0 0.04 0.37 0.37 90 1012.7
20260506184548 51 225 0.0 2.0 0.05 0.36 0.36 91 1012.7
20260506183048 51 248 0.0 3.0 0.06 0.35 0.35 91 1012.7
20260506181546 51 257 0.0 2.0 0.06 0.35 0.35 91 1012.6
20260506180058 51 243 1.0 4.0 0.05 0.33 0.33 91 1012.5
20260506174545 51 241 2.0 5.0 0.05 0.46 0.31 91 1012.3
20260506173043 52 243 2.0 6.0 0.05 0.45 0.30 91 1012.1
20260506171541 52 244 2.0 5.0 0.06 0.44 0.28 91 1011.9
20260506170048 52 259 1.0 5.0 0.06 0.43 0.28 91 1011.8
20260506164538 52 239 3.0 4.0 0.06 0.42 0.27 90 1011.8
20260506163056 52 245 2.0 4.0 0.06 0.40 0.25 90 1011.7
20260506161536 53 244 1.0 5.0 0.04 0.38 0.23 90 1011.7
20260506160036 52 254 1.0 6.0 0.04 0.37 0.22 90 1011.6
20260506154541 52 266 0.0 4.0 0.02 0.35 0.20 91 1011.5
20260506153036 53 269 0.0 5.0 0.02 0.34 0.19 90 1011.4
20260506151532 53 84 0.0 4.0 0.02 0.33 0.18 90 1011.3
20260506150031 52 243 1.0 3.0 0.02 0.33 0.18 90 1011.2
20260506144530 52 237 2.0 7.0 0.02 0.37 0.18 89 1011.2
20260506143040 52 261 2.0 7.0 0.03 0.36 0.17 89 1011.3
20260506141534 52 248 1.0 6.0 0.03 0.35 0.17 89 1011.3
20260506140029 52 238 3.0 8.0 0.04 0.35 0.17 88 1011.3
20260506134528 52 234 4.0 7.0 0.04 0.42 0.16 89 1011.1
20260506133028 53 251 3.0 8.0 0.03 0.40 0.14 91 1011.0
20260506131529 53 226 3.0 10.0 0.02 0.39 0.13 90 1011.1
20260506130027 53 287 1.0 8.0 0.02 0.39 0.13 91 1011.0
20260506124525 53 233 2.0 7.0 0.02 0.38 0.12 91 1010.8
20260506123026 54 240 1.0 8.0 0.06 0.37 0.11 91 1010.6
20260506121523 54 240 2.0 8.0 0.08 0.37 0.11 92 1010.4
20260506120026 54 244 3.0 13.0 0.09 0.36 0.10 91 1010.1
20260506114529 55 255 1.0 4.0 0.08 0.35 0.09 93 1010.1
20260506113023 55 247 1.0 7.0 0.06 0.31 0.06 92 1010.1
20260506111520 56 256 2.0 5.0 0.03 0.28 0.03 90 1010.0
20260506110019 56 269 3.0 5.0 0.02 0.28 0.02 89 1009.9
20260506104518 56 230 1.0 4.0 0.01 0.27 0.01 88 1009.9
20260506103018 57 242 1.0 5.0 0.00 0.26 0.00 85 1009.7
20260506101518 57 244 1.0 4.0 0.00 0.26 0.00 83 1009.6
20260506100017 57 250 1.0 4.0 0.00 0.26 0.00 82 1009.4
20260506094515 57 231 0.0 6.0 0.00 0.26 0.00 84 1009.4
20260506093016 57 246 2.0 5.0 0.00 0.26 0.00 83 1009.4
20260506091515 57 243 3.0 7.0 0.00 0.26 0.00 82 1009.3
20260506090016 57 237 2.0 6.0 0.00 0.26 0.00 82 1009.3
20260506084513 57 236 2.0 8.0 0.00 0.27 0.00 81 1009.2
20260506083013 58 249 2.0 7.0 0.00 0.27 0.00 80 1009.0
20260506081512 58 237 2.0 8.0 0.00 0.27 0.00 80 1008.9
20260506073006 56 247 1.0 5.0 0.00 0.27 0.00 83 1009.1
20260506071505 55 260 1.0 6.0 0.00 0.27 0.00 85 1009.0
20260506061559 55 252 1.0 2.0 0.00 0.27 0.00 84 1009.2